#timestamp,LO_Frequency,Hit,StdDev 
1632902415.2,286046999.5,N
1632902435.0,286046996.9,N
1632902435.9,286046996.9,N
1632902455.7,286046997.6,N
1632902475.6,286046997.4,N
1632902495.4,286046997.1,N
1632902515.3,286046997.8,N
1632902535.1,286046997.2,N
1632902536.0,286046997.2,N
1632902555.8,286046997.7,N
1632902575.7,286046997.5,N
1632902595.5,286046997.0,N
1632902615.4,286046997.8,N
1632902635.2,286046997.6,N
1632902655.0,286046997.1,N
1632902655.9,286046997.1,N
1632902675.8,286046997.1,N
1632902695.6,286046997.9,N
1632902715.4,286046997.5,N
1632902735.3,286046997.9,N
1632902755.1,286046997.2,Y
1632902775.9,286047000.0,P
1632902795.7,286046998.5,N
1632902815.5,286047000.9,N
1632902835.4,286046998.5,N
1632902855.2,286046999.5,N
1632902875.0,286046998.9,N
1632902876.0,286046998.9,N
1632902895.8,286046996.5,Y
1632902915.6,286046998.2,P
1632902935.5,286046998.3,P
1632902955.3,286047000.7,N
1632902975.1,286046998.6,N
1632902995.9,286046998.3,N
1632903015.7,286046998.7,N
1632903035.6,286047000.5,N
1632903055.4,286047000.7,N
1632903075.2,286047001.0,N
1632903095.1,286047000.5,N
1632903096.0,286047000.5,N
1632903115.8,286046999.8,N
1632903135.7,286046999.9,N
1632903155.5,286047000.1,N
1632903175.3,286046999.9,N
1632903195.2,286047000.3,N
1632903215.0,286047000.3,N
1632903215.9,286047000.3,N
1632903235.7,286047000.7,N
1632903255.6,286047001.1,N
1632903275.4,286047000.5,N
1632903295.3,286047000.8,N
1632903315.1,286046999.9,N
1632903316.0,286046999.9,N
1632903335.8,286047000.0,N
1632903355.7,286046998.4,N
1632903375.5,286046998.5,N
1632903395.4,286047000.6,N
1632903415.2,286047000.9,N
1632903435.0,286047001.2,N
1632903435.9,286047001.2,N
1632903455.8,286046998.4,N
1632903475.6,286046998.1,N
1632903495.4,286046998.5,N
1632903515.3,286046999.9,N
1632903535.1,286047000.0,N
1632903555.9,286047000.2,N
1632903575.7,286047000.4,N
1632903595.5,286047000.7,N
1632903615.4,286047000.0,N
1632903635.2,286047002.8,Y
1632903655.0,286046999.7,P
1632903656.0,286046999.7,N
1632903675.8,286047000.5,N
1632903695.6,286046999.9,N
1632903715.5,286047002.8,Y
1632903735.3,286047002.8,P
1632903755.2,286046999.7,N
1632903775.9,286047002.8,N
1632903795.7,286047002.7,N
1632903815.6,286047002.2,N
1632903835.4,286047001.9,N
1632903855.2,286047000.5,N
1632903905.1,286047000.1,E
1632903915.0,286047000.4,N
1632903915.9,286047000.4,P
1632903935.8,286047000.4,P
1632903955.6,286046998.4,Y
1632903975.5,286046999.5,P
1632903995.3,286047001.1,N
1632904015.1,286046998.3,N
1632904035.9,286047000.0,N
1632904055.7,286047000.2,N
1632904075.6,286046999.9,N
1632904095.4,286047002.7,Y
1632904115.2,286047002.3,P
1632904135.1,286047002.4,N
1632904136.0,286047002.4,N
1632904155.8,286047001.8,N
1632904175.7,286047002.6,N
1632904195.5,286047002.1,N
1632904215.3,286047002.4,N
1632904235.2,286047000.2,N
1632904255.0,286047002.1,N
1632904255.9,286047002.1,N
1632904275.7,286046999.8,N
1632904295.6,286046999.7,N
1632904315.4,286047001.0,N
1632904335.3,286046998.6,N
1632904355.1,286046998.8,N
1632904375.8,286046998.6,N
1632904395.7,286046998.2,N
1632904415.5,286047000.8,N
1632904435.4,286047000.5,N
1632904455.2,286047000.1,N
1632904475.0,286046999.7,N
1632904475.9,286046999.7,N
1632904495.8,286047000.4,N
1632904515.6,286047002.7,N
1632904535.4,286046999.9,N
1632904555.3,286047000.3,N
1632904575.1,286047000.7,N
1632904595.9,286046999.7,N
1632904615.7,286047000.2,N
1632904635.5,286047002.4,N
1632904655.4,286047000.2,N
1632904675.2,286047002.7,N
1632904695.0,286046999.8,N
1632904696.0,286046999.8,N
1632904715.8,286047000.2,N
1632904735.6,286047002.3,N
1632904755.5,286047002.1,N
1632904775.3,286047002.0,N
1632904795.1,286047002.1,N
1632904815.9,286047002.6,N
1632904835.7,286047000.7,N
1632904855.6,286046999.3,N
1632904875.4,286046998.7,N
1632904895.2,286046999.3,N
1632904915.1,286046999.1,N
1632904916.0,286046999.1,N
1632904935.8,286046999.4,N
1632904955.6,286046996.7,N
1632904975.5,286046999.6,N
1632904995.3,286046997.0,N
1632905015.2,286046998.4,N
1632905035.9,286046998.4,N
1632905055.7,286046998.9,N
1632905075.6,286046998.5,N
1632905095.4,286047001.0,N
1632905115.3,286046999.7,N
1632905135.1,286046999.8,N
1632905136.0,286046999.8,N
1632905155.8,286047002.4,N
1632905175.7,286047002.0,N
1632905195.5,286047002.4,N
1632905215.3,286047001.9,N
1632905235.2,286047002.8,N
1632905255.0,286047002.4,N
1632905255.9,286047002.4,N
1632905275.8,286047001.5,N
1632905295.6,286047002.1,N
1632905315.4,286047004.4,N
1632905335.3,286047004.3,N
1632905355.1,286047002.1,N
1632905375.9,286047000.2,N
1632905395.7,286047000.5,N
1632905415.5,286047000.2,N
1632905435.4,286047000.2,N
1632905455.2,286047000.6,N
1632905475.0,286047000.0,N
1632905475.9,286047000.0,N
1632905495.8,286047002.6,N
1632905515.6,286047002.8,N
1632905535.5,286047002.3,N
1632905555.3,286047001.3,N
1632905575.1,286047001.7,N
1632905595.9,286047001.9,N
1632905615.7,286047001.5,N
1632905635.5,286047002.1,N
1632905655.4,286047001.9,N
1632905675.2,286046999.7,N
1632905695.1,286047002.3,N
1632905696.0,286047002.3,N
1632905715.8,286047000.4,N
1632905735.6,286047000.1,N
1632905755.5,286046999.9,N
1632905775.3,286046999.7,N
1632905795.1,286047002.1,N
1632905815.9,286047001.3,N
1632905835.7,286047001.3,N
1632905855.6,286047002.4,N
1632905875.4,286047001.7,N
1632905895.2,286047003.8,Y
1632905915.1,286047002.2,P
1632905916.0,286047002.2,P
1632905935.8,286047001.9,P
1632905955.7,286047002.3,Y
1632905975.5,286046999.3,P
1632905995.3,286046999.1,N
